Wind_Speed
25 24 22 20 20 20 20 22 22 18 11 10 12 9 4 15 29 35 25 22 22 25 9 4 4 4 2 3 3 3 5 11 13 9 8 3 3 2 4 8 3 4 3 1 17
25 24 22 20 21 21 22 27 20 12 10 10 11 7 2 3 10 38 29 32 25 21 11 6 3 4 3 3 4 7 7 12 6 10 13 9 5 4 4 6 13 12 2 13 24
26 27 25 21 22 24 27 24 15 9 10 9 10 5 3 5 5 15 34 32 22 18 10 3 2 1 3 2 6 5 13 9 6 11 10 12 11 9 11 18 19 15 12 14 17
27 29 28 23 24 26 30 18 14 10 10 10 8 14 13 5 6 19 36 34 24 16 5 2 2 2 3 6 4 7 8 10 7 8 9 14 11 16 15 26 19 12 7 16 18
28 30 29 23 27 30 27 14 14 14 13 16 16 12 8 11 8 24 36 36 24 19 4 2 3 3 5 3 5 12 10 11 10 11 12 12 18 16 24 24 21 15 13 15 18
28 30 30 26 28 32 17 14 14 15 20 27 28 25 25 17 8 31 36 37 24 16 7 5 5 5 6 8 10 4 8 11 11 12 13 15 19 8 26 20 23 20 20 17 20
27 29 29 23 28 31 13 12 13 16 8 5 5 12 26 12 15 33 35 26 19 15 6 5 8 5 1 4 11 6 13 13 14 16 12 10 19 25 16 16 19 18 18 19 22
26 27 29 23 27 29 13 12 9 18 22 10 10 8 6 20 15 34 37 29 24 16 10 15 6 7 5 6 6 9 11 12 3 4 6 11 24 21 7 15 21 21 20 17 22
26 29 29 21 27 26 14 25 20 7 25 29 8 8 7 16 20 30 38 21 19 30 8 2 3 1 2 7 11 5 15 16 13 13 12 15 22 5 7 11 16 16 18 16 19
23 29 28 17 26 26 4 4 26 20 4 8 23 3 13 15 18 31 43 17 6 19 6 10 4 1 3 4 8 11 11 13 11 4 7 17 29 17 14 14 12 14 15 13 15
24 27 26 12 27 22 8 2 6 6 17 11 7 8 13 23 9 25 38 8 7 15 11 6 7 9 12 10 12 16 18 24 24 16 20 22 25 19 14 16 19 18 20 16 16
24 26 24 9 23 16 21 7 3 2 9 6 7 7 17 13 9 25 39 9 11 17 19 6 7 10 17 15 13 14 17 26 20 11 16 21 31 25 26 23 20 23 21 20 16
24 26 24 8 11 19 15 10 3 8 4 6 4 12 17 10 10 25 28 8 10 16 16 4 7 19 17 10 14 13 13 19 20 17 17 19 28 26 23 17 19 20 24 21 21
25 26 23 11 3 13 4 17 6 8 4 12 11 9 14 10 9 23 28 5 10 8 11 5 14 15 15 3 17 16 7 17 18 12 9 4 11 15 16 24 21 21 22 23 22
20 24 21 19 6 4 15 3 8 2 3 16 7 7 14 15 9 21 23 6 14 12 9 14 12 13 11 11 22 12 18 21 20 14 16 21 10 12 13 21 24 23 23 23 24
18 23 25 14 12 17 3 9 2 2 5 7 6 13 11 15 9 15 11 15 5 5 12 12 10 2 1 21 16 19 16 20 16 12 12 20 16 11 13 20 20 22 21 22 24
21 20 27 20 14 11 8 1 3 7 7 10 9 11 5 15 8 15 12 21 15 12 19 17 10 5 5 23 13 23 14 4 6 8 13 13 13 21 12 14 16 14 21 20 21
13 27 28 32 27 4 2 4 11 2 4 6 10 7 7 18 7 15 10 8 12 13 5 11 11 9 16 8 9 17 10 6 7 7 12 12 11 14 15 16 19 14 9 8 5
5 10 29 39 25 2 5 8 2 3 6 8 10 3 4 9 8 11 9 5 7 14 10 8 7 20 12 16 4 12 14 20 9 18 10 9 13 1 19 14 15 10 10 9 10
3 4 25 30 20 7 6 7 3 6 6 4 7 7 7 12 11 12 5 2 4 10 11 7 12 7 12 13 3 11 12 8 6 5 7 9 7 8 19 17 18 17 17 15 14
5 3 30 22 16 7 5 5 4 6 9 7 4 4 5 10 12 5 4 3 8 11 13 12 5 10 15 5 14 12 7 5 6 6 5 5 6 11 12 16 17 16 16 16 16
5 4 31 13 5 3 4 3 4 8 8 6 2 5 4 13 8 5 4 6 16 10 19 7 7 11 22 18 4 8 11 8 6 6 7 4 4 13 13 14 17 18 18 17 16
3 2 23 16 4 3 3 4 4 8 5 7 4 6 9 9 7 9 6 14 12 21 8 6 3 11 11 1 5 9 17 18 17 10 2 5 6 19 17 17 18 19 19 18 18
3 3 4 6 3 4 3 6 7 6 2 7 2 6 15 10 2 10 13 14 19 20 15 9 6 9 10 15 16 15 22 17 11 4 8 9 13 21 20 21 22 18 18 18 19
5 2 0 4 6 9 4 3 10 10 5 7 3 14 13 7 13 5 22 23 18 8 8 9 8 14 14 17 18 14 10 16 20 14 9 16 15 25 24 19 23 17 17 19 24
3 2 2 2 3 3 8 6 10 9 4 5 11 14 11 7 10 23 23 21 15 15 12 9 8 16 12 17 10 9 14 16 19 19 11 16 13 22 21 17 25 24 23 24 20
5 2 2 3 2 2 2 4 6 10 2 5 12 12 10 7 16 20 18 14 5 13 14 14 13 10 5 12 12 7 19 14 15 16 13 16 16 21 22 20 25 25 22 22 22
Wind_Direction
13 11 12 17 14 11 9 358 347 351 351 357 2 12 99 83 58 45 34 353 351 2 20 72 76 181 104 156 143 144 230 237 233 227 254 234 227 210 266 251 283 213 223 287 149
13 11 13 12 11 8 3 351 342 349 351 354 357 356 340 127 61 37 7 6 4 10 17 36 55 137 173 199 191 210 229 234 216 241 259 264 244 287 273 248 271 272 227 141 155
15 13 12 9 7 5 359 353 356 356 358 7 1 23 55 124 57 8 6 3 1 359 2 15 349 219 226 196 196 204 243 228 234 238 254 270 255 250 260 269 258 270 285 169 171
15 13 10 10 6 5 359 6 11 25 29 27 75 68 71 37 57 348 3 358 354 353 8 39 20 239 233 226 224 255 247 243 266 265 262 264 272 256 240 251 262 262 182 182 187
16 12 10 15 9 6 2 24 43 48 56 70 67 55 66 66 44 355 355 353 349 347 344 216 178 203 232 240 290 257 270 264 274 292 277 281 266 264 254 249 260 263 250 214 203
15 13 12 13 10 6 18 43 54 59 89 91 75 67 73 61 353 0 355 351 351 339 290 228 237 212 251 232 230 233 250 274 284 282 277 264 271 252 256 248 256 258 255 230 204
14 11 11 8 11 13 44 52 57 55 61 45 29 87 62 47 8 360 357 341 341 330 280 266 311 263 234 232 251 272 279 272 266 256 244 212 258 238 272 248 246 244 245 237 210
14 12 8 9 13 18 40 45 66 67 54 62 60 66 91 21 16 7 357 350 358 2 293 278 303 248 251 289 285 273 274 279 181 140 218 196 256 260 229 233 245 245 245 231 218
15 12 8 17 15 22 69 66 56 80 62 52 50 89 21 345 15 5 1 342 344 356 36 272 197 175 214 245 268 255 271 265 282 263 258 205 263 290 304 241 245 241 240 239 228
11 11 9 21 16 15 4 100 58 45 43 26 33 61 358 346 5 7 357 4 1 359 12 14 13 126 43 307 267 308 279 279 274 331 265 249 254 263 303 304 278 269 262 245 230
13 10 9 17 19 20 55 93 23 24 36 80 66 87 335 342 6 4 357 5 1 35 14 356 46 34 346 336 319 309 290 284 274 278 292 275 279 281 293 294 286 269 267 258 236
12 10 9 20 23 25 50 69 82 143 81 51 80 37 1 354 14 11 5 27 19 16 6 12 64 10 332 318 308 296 289 276 293 276 259 267 270 277 274 270 272 276 270 261 247
13 9 10 13 29 24 53 36 266 166 92 29 20 22 5 355 33 10 5 357 13 4 2 335 314 338 338 345 350 305 278 285 283 293 271 281 277 267 258 262 255 260 269 262 236
11 10 11 14 44 356 38 348 154 170 89 1 356 10 351 350 31 6 7 7 18 345 355 351 319 330 350 39 353 310 335 322 307 302 279 230 282 269 258 247 240 248 243 252 240
14 15 18 39 4 40 320 75 137 215 62 330 357 334 349 31 316 355 6 15 23 345 5 325 304 328 347 337 326 275 306 298 284 275 266 250 259 272 233 237 233 234 238 240 237
22 25 25 25 11 346 15 134 119 42 38 353 359 346 9 3 348 351 12 18 48 356 348 327 293 349 92 329 315 300 304 291 265 233 238 241 225 262 244 244 247 237 241 237 236
36 29 29 24 336 357 138 58 45 64 340 349 339 337 19 352 341 3 5 34 39 2 350 333 328 344 1 337 338 346 336 299 233 214 250 246 228 240 262 268 274 266 243 236 238
39 29 20 9 360 72 67 64 65 332 2 307 328 330 22 6 346 345 7 25 35 23 337 345 331 4 339 340 312 321 320 305 306 267 264 217 225 247 245 280 289 297 318 322 313
244 6 13 358 0 28 70 51 82 360 318 327 327 16 356 4 330 343 355 22 39 32 17 330 282 313 318 345 0 339 335 303 248 252 267 234 246 89 10 356 353 351 346 356 345
39 15 8 355 13 58 69 103 87 27 327 348 10 19 342 348 350 337 319 72 19 23 15 326 295 295 323 322 165 329 307 332 329 278 246 246 250 8 348 351 355 1 350 347 348
49 52 350 358 29 49 73 78 80 16 28 20 9 327 353 345 322 301 302 342 12 345 345 316 247 292 317 337 316 344 342 334 279 270 320 323 89 352 3 4 354 348 348 347 343
61 53 350 17 56 33 46 29 55 2 13 13 53 64 359 332 308 290 298 311 354 341 326 304 285 289 306 304 255 326 318 324 310 304 287 259 87 3 0 2 356 -0 356 352 349
67 18 13 30 71 39 66 41 74 16 9 11 2 6 6 327 316 309 328 335 325 326 317 306 274 316 317 244 356 330 315 320 306 269 348 344 360 355 6 3 1 5 356 1 6
82 44 359 35 35 69 74 38 8 7 354 352 348 11 342 327 287 293 316 317 322 319 317 343 269 260 274 288 298 306 321 351 356 350 325 14 337 343 346 12 5 2 360 8 16
30 63 29 11 19 46 74 35 16 6 354 349 9 357 341 316 319 344 317 315 332 338 331 320 276 284 281 280 288 302 33 28 29 7 33 342 356 350 345 8 9 0 3 13 17
86 47 29 43 6 48 21 32 15 353 318 349 344 338 323 314 335 313 311 319 326 318 335 357 322 312 291 282 294 359 28 43 41 25 10 6 7 349 349 15 7 358 9 16 15
63 94 109 344 23 70 40 353 352 347 320 345 340 333 328 331 307 294 295 292 303 48 16 358 341 320 271 309 306 112 2 28 35 34 14 21 344 347 3 13 4 2 1 14 8
Height
816 813 809 807 805 801 798 795 791 788 786 784 782 781 780 779 780 779 777 790 783 774 770 769 770 770 772 772 773 775 776 771 765 767 750 746 748 742 738 739 737 735 736 736 740
817 814 810 807 804 800 797 793 788 785 784 782 781 779 778 778 777 779 791 785 780 775 773 771 771 772 771 771 772 769 771 761 759 754 750 747 748 745 744 741 736 733 735 738 740
817 813 810 807 803 799 795 789 785 783 783 781 780 778 778 778 778 794 790 786 780 776 774 772 772 771 771 771 769 765 757 758 755 752 749 747 748 743 743 742 730 731 730 738 741
817 813 809 805 802 798 792 787 784 783 782 781 780 780 779 779 800 798 791 786 780 776 773 771 771 771 772 770 766 767 759 758 752 751 750 749 745 743 740 728 724 727 731 733 737
817 813 809 804 800 794 790 787 785 784 783 782 782 781 782 789 802 798 791 785 778 773 771 769 769 769 770 768 767 763 760 757 754 754 752 750 745 744 728 722 723 726 727 729 731
817 813 808 804 800 795 789 788 787 786 786 785 784 784 785 797 804 798 791 782 776 773 769 768 764 764 765 763 763 755 754 753 751 749 748 749 741 744 705 721 721 722 720 721 724
818 813 809 805 801 796 791 790 790 789 788 786 786 786 787 808 804 798 790 782 776 773 769 766 767 767 763 761 753 754 754 746 743 739 737 738 735 721 714 719 715 714 712 712 716
819 814 810 805 801 796 793 791 791 791 789 787 787 787 798 803 802 794 786 776 773 770 767 764 765 766 764 758 754 753 750 747 732 736 734 734 715 697 704 710 707 706 704 706 707
820 815 809 805 800 797 796 793 792 792 791 790 789 790 806 803 800 795 788 782 774 767 764 762 763 763 762 760 759 760 746 741 739 732 730 730 708 705 702 703 700 698 697 699 700
819 815 809 805 801 797 793 794 794 793 793 792 798 799 805 805 805 798 789 783 779 774 765 767 766 762 765 763 758 759 753 743 745 734 731 724 704 705 708 706 703 697 694 695 693
820 816 811 806 803 798 792 793 798 802 804 811 818 815 815 808 804 800 791 785 783 779 785 780 773 783 786 782 778 771 760 748 738 741 739 728 715 713 713 710 702 696 690 688 688
820 816 811 807 806 802 797 803 811 814 815 816 817 816 814 809 804 802 797 791 790 791 789 783 782 789 786 782 777 768 759 741 737 737 737 729 713 716 709 704 701 693 685 683 684
821 816 812 807 806 804 804 810 810 811 812 818 818 817 814 811 810 809 804 798 799 796 796 800 790 790 784 779 777 764 761 744 744 739 734 731 712 710 698 696 692 686 679 677 674
822 817 812 807 809 808 808 809 809 811 811 831 823 824 820 812 813 817 813 809 807 807 801 799 793 795 783 782 787 775 751 755 749 741 733 719 704 693 686 684 684 677 673 666 665
824 819 814 810 814 812 813 809 810 813 807 834 831 830 829 828 831 822 819 812 815 813 810 807 799 795 791 797 787 775 769 761 751 749 730 717 720 680 677 676 669 664 662 658 654
825 821 816 813 813 813 810 811 813 809 836 841 838 836 836 833 831 826 824 816 816 814 812 806 798 795 799 790 780 770 760 745 727 729 723 705 710 682 675 665 658 655 651 650 645
827 823 818 817 817 811 811 813 813 850 848 849 846 842 843 842 834 832 831 828 830 825 818 811 798 795 796 788 773 770 754 726 712 719 699 689 704 680 665 660 656 653 644 642 641
827 825 822 820 816 812 812 814 861 857 857 852 850 846 849 846 841 838 836 836 838 837 835 830 804 806 801 804 801 781 776 759 740 692 685 683 688 670 660 662 659 659 660 653 650
827 826 822 819 816 813 817 860 868 862 861 857 850 851 853 854 854 844 841 842 845 844 848 839 816 800 799 797 802 789 776 777 770 736 724 671 664 659 680 672 667 665 662 657 655
828 827 828 823 817 815 827 857 862 865 864 859 860 858 859 859 857 851 845 845 846 848 845 838 830 804 798 792 799 796 794 773 757 715 695 665 668 695 707 698 686 682 672 665 660
830 836 836 827 824 829 858 859 864 867 865 863 864 863 866 867 863 855 848 844 849 847 844 839 836 808 802 801 805 794 790 788 779 759 716 693 721 739 728 720 711 699 688 678 669
836 851 844 832 842 861 870 870 868 870 868 868 866 870 871 867 863 857 849 846 848 849 847 840 832 819 810 797 794 793 792 796 783 757 750 728 726 742 736 730 723 707 695 686 676
852 859 852 838 865 877 872 874 875 875 875 872 872 872 875 870 871 857 852 848 849 851 847 843 829 823 799 794 791 796 790 786 781 761 737 726 743 754 741 735 724 713 704 692 680
856 867 868 865 876 874 876 880 879 878 876 877 875 873 875 870 866 859 859 853 851 848 839 834 832 832 825 816 808 807 794 790 775 762 760 771 762 767 750 737 731 723 716 706 692
867 884 885 886 882 880 879 885 885 885 881 878 874 880 880 872 864 861 862 850 850 843 842 840 834 823 819 811 802 801 805 802 797 792 785 790 779 771 760 741 739 734 723 709 699
877 884 886 889 887 885 886 890 889 887 887 882 884 883 879 877 879 869 859 856 855 844 847 844 833 829 814 797 796 803 810 809 806 806 800 792 784 784 767 757 750 741 727 718 714
883 885 886 893 889 887 894 892 891 890 885 884 885 882 877 879 874 865 863 861 865 859 850 844 838 829 808 790 791 811 825 818 817 814 814 804 809 792 777 767 760 747 740 732 728